Weather History for KHVS - March, 2013

Change the Weather History Date:

Tuesday, March 5, 2013

  Actual Average (KFLO) Record (KFLO)
Temperature  
Mean Temperature 52 °F 53 °F  
Max Temperature 68 °F 64 °F 86 °F (1955)
Min Temperature 37 °F 41 °F 20 °F (1960)
Degree Days  
Heating Degree Days 12 13  
Month to date heating degree days 66  
Since 1 July heating degree days 2132  
Cooling Degree Days 0 0  
Month to date cooling degree days 0  
Year to date cooling degree days 6  
Growing Degree Days 2 (Base 50)    
Moisture  
Dew Point 38 °F    
Average Humidity 61    
Maximum Humidity 94    
Minimum Humidity 40    
Precipitation  
Precipitation 0.00 in 0.11 in 1.00 in (1959)
Month to date precipitation 0.55  
Year to date precipitation 6.70  
Sea Level Pressure  
Sea Level Pressure 29.92 in    
Wind  
Wind Speed 4 mph (SSW)    
Max Wind Speed 16 mph    
Max Gust Speed 24 mph    
Visibility 9 miles    
Events      
T = Trace of Precipitation, MM = Missing Value Source: NWS Daily Summary

Daily Weather History Graph

Daily Weather History Graph

Search for Another Location

Airport or City:

Trip Planner

Search our weather history database for the weather conditions in past years. The results will help you decide how hot, cold, wet, or windy it might be!

Date:

Astronomy

Mar. 05, 2013 Rise Set
Actual Time 6:44 AM EST 6:20 PM EST
Civil Twilight 6:18 AM EST 6:45 PM EST
Nautical Twilight 5:49 AM EST 7:14 PM EST
Astronomical Twilight 5:20 AM EST 7:43 PM EST
Moon 1:43 AM EST (3/5) 12:08 PM EST (3/5)
Length of Visible Light 12h 26m
Length of Day
11h 36m
Last Quarter, 41% of the Moon is Illuminated
Mar 5
Last Quarter
Mar 11
New
Mar 19
First Quarter
Mar 27
Full
Apr 3
Last Quarter

Hourly Weather History & Observations

Time (EST) Temp. Windchill Dew Point Humidity Pressure Visibility Wind Dir Wind Speed Gust Speed Precip Events Conditions
12:15 AM 42.8 °F - 23.0 °F 46% 30.09 in 10.0 mi Calm Calm - N/A   Clear
12:35 AM 41.0 °F - 23.0 °F 49% 30.09 in 10.0 mi Calm Calm - N/A   Clear
12:55 AM 41.0 °F - 24.8 °F 53% 30.09 in 10.0 mi Calm Calm - N/A   Clear
1:15 AM 39.2 °F - 26.6 °F 61% 30.08 in 10.0 mi Calm Calm - N/A   Clear
1:35 AM 41.0 °F - 24.8 °F 53% 30.09 in 10.0 mi Calm Calm - N/A   Clear
1:55 AM 42.8 °F - 23.0 °F 46% 30.08 in 10.0 mi Calm Calm - N/A   Clear
2:15 AM 42.8 °F - 24.8 °F 49% 30.08 in 10.0 mi Calm Calm - N/A   Clear
2:35 AM 41.0 °F - 24.8 °F 53% 30.09 in 10.0 mi Calm Calm - N/A   Clear
2:55 AM 41.0 °F - 26.6 °F 57% 30.09 in 10.0 mi Calm Calm - N/A   Clear
3:15 AM 41.0 °F - 26.6 °F 57% 30.09 in 10.0 mi Calm Calm - N/A   Clear
3:35 AM 39.2 °F - 26.6 °F 61% 30.08 in 10.0 mi Calm Calm - N/A   Clear
3:55 AM 37.4 °F - 26.6 °F 65% 30.08 in 10.0 mi Calm Calm - N/A   Clear
4:15 AM 39.2 °F - 26.6 °F 61% 30.09 in 10.0 mi Calm Calm - N/A   Clear
4:35 AM 41.0 °F - 28.4 °F 61% 30.08 in 10.0 mi Calm Calm - N/A   Clear
4:55 AM 39.2 °F - 28.4 °F 65% 30.09 in 7.0 mi Calm Calm - N/A   Clear
5:15 AM 41.0 °F - 30.2 °F 65% 30.09 in 10.0 mi Calm Calm - N/A   Clear
5:35 AM 41.0 °F - 30.2 °F 65% 30.09 in 10.0 mi Calm Calm - N/A   Clear
5:55 AM 41.0 °F - 30.2 °F 65% 30.09 in 10.0 mi Calm Calm - N/A   Clear
6:15 AM 41.0 °F - 32.0 °F 70% 30.08 in 10.0 mi Calm Calm - N/A   Clear
6:35 AM 41.0 °F - 32.0 °F 70% 30.08 in 10.0 mi Calm Calm - N/A   Clear
6:55 AM 41.0 °F - 32.0 °F 70% 30.08 in 10.0 mi Calm Calm - N/A   Clear
7:15 AM 41.0 °F 39.0 °F 32.0 °F 70% 30.06 in 7.0 mi SE 3.5 mph - N/A   Clear
7:35 AM 41.0 °F - 32.0 °F 70% 30.07 in 10.0 mi Calm Calm - N/A   Clear
8:15 AM 42.8 °F - 33.8 °F 70% 30.07 in 10.0 mi Calm Calm - N/A   Clear
8:35 AM 44.6 °F 41.4 °F 35.6 °F 71% 30.06 in 10.0 mi South 5.8 mph - N/A   Mostly Cloudy
8:55 AM 46.4 °F 45.2 °F 35.6 °F 66% 30.05 in 10.0 mi South 3.5 mph - N/A   Mostly Cloudy
9:15 AM 51.8 °F - 35.6 °F 54% 30.05 in 10.0 mi SSW 8.1 mph - N/A   Mostly Cloudy
9:35 AM 51.8 °F - 35.6 °F 54% 30.04 in 10.0 mi SSW 3.5 mph - N/A   Overcast
9:55 AM 51.8 °F - 35.6 °F 54% 30.04 in 7.0 mi SSW 4.6 mph - N/A   Overcast
10:15 AM 51.8 °F - 35.6 °F 54% 30.03 in 7.0 mi SSW 4.6 mph - N/A   Overcast
10:35 AM 51.8 °F - 37.4 °F 58% 30.04 in 7.0 mi Calm Calm - N/A   Overcast
10:55 AM 51.8 °F - 41.0 °F 67% 30.03 in 7.0 mi SSW 4.6 mph - N/A   Overcast
11:15 AM 51.8 °F - 41.0 °F 67% 30.02 in 10.0 mi South 5.8 mph - N/A   Overcast
11:35 AM 51.8 °F - 41.0 °F 67% 30.01 in 10.0 mi South 4.6 mph - N/A   Overcast
11:55 AM 53.6 °F - 39.2 °F 58% 30.00 in 7.0 mi Calm Calm - N/A   Overcast
12:15 PM 53.6 °F - 42.8 °F 67% 29.99 in 10.0 mi SSW 3.5 mph - N/A   Overcast
12:35 PM 53.6 °F - 41.0 °F 62% 29.98 in 10.0 mi South 5.8 mph - N/A   Overcast
12:55 PM 55.4 °F - 41.0 °F 58% 29.96 in 10.0 mi South 9.2 mph - N/A   Overcast
1:15 PM 57.2 °F - 41.0 °F 55% 29.94 in 10.0 mi South 6.9 mph - N/A   Overcast
1:35 PM 60.8 °F - 41.0 °F 48% 29.92 in 10.0 mi South 8.1 mph - N/A   Mostly Cloudy
1:55 PM 62.6 °F - 41.0 °F 45% 29.90 in 7.0 mi SSW 9.2 mph - N/A   Mostly Cloudy
2:15 PM 64.4 °F - 41.0 °F 42% 29.89 in 10.0 mi South 11.5 mph 16.1 mph N/A   Mostly Cloudy
2:35 PM 66.2 °F - 41.0 °F 40% 29.87 in 10.0 mi South 8.1 mph - N/A   Scattered Clouds
2:55 PM 68.0 °F - 42.8 °F 40% 29.87 in 10.0 mi SSW 15.0 mph 20.7 mph N/A   Clear
3:15 PM 68.0 °F - 42.8 °F 40% 29.86 in 10.0 mi SSW 9.2 mph - N/A   Scattered Clouds
3:35 PM 66.2 °F - 42.8 °F 43% 29.84 in 10.0 mi SSW 5.8 mph - N/A   Overcast
3:55 PM 68.0 °F - 42.8 °F 40% 29.84 in 7.0 mi SSW 13.8 mph 20.7 mph N/A   Overcast
4:15 PM 68.0 °F - 42.8 °F 40% 29.84 in 10.0 mi SSW 10.4 mph 19.6 mph N/A   Overcast
4:35 PM 68.0 °F - 44.6 °F 43% 29.81 in 10.0 mi South 8.1 mph - N/A   Overcast
4:55 PM 68.0 °F - 44.6 °F 43% 29.80 in 10.0 mi South 9.2 mph - N/A   Overcast
5:15 PM 66.2 °F - 46.4 °F 49% 29.79 in 10.0 mi South 13.8 mph 18.4 mph N/A   Overcast
5:35 PM 66.2 °F - 46.4 °F 49% 29.79 in 7.0 mi South 10.4 mph 16.1 mph N/A   Overcast
5:55 PM 64.4 °F - 46.4 °F 52% 29.79 in 10.0 mi SSW 13.8 mph 24.2 mph N/A   Mostly Cloudy
6:15 PM 64.4 °F - 48.2 °F 56% 29.79 in 10.0 mi SSW 11.5 mph 21.9 mph N/A   Overcast
6:35 PM 62.6 °F - 46.4 °F 55% 29.77 in 10.0 mi South 13.8 mph 19.6 mph N/A   Overcast
6:55 PM 62.6 °F - 46.4 °F 55% 29.74 in 10.0 mi South 13.8 mph 18.4 mph N/A   Overcast
7:15 PM 60.8 °F - 48.2 °F 63% 29.73 in 10.0 mi South 11.5 mph 18.4 mph N/A   Scattered Clouds
7:35 PM 60.8 °F - 48.2 °F 63% 29.72 in 10.0 mi South 12.7 mph 18.4 mph N/A   Clear
7:55 PM 60.8 °F - 46.4 °F 59% 29.69 in 10.0 mi South 11.5 mph 18.4 mph N/A   Scattered Clouds
8:15 PM 60.8 °F - 46.4 °F 59% 29.69 in 10.0 mi South 11.5 mph 20.7 mph N/A   Mostly Cloudy
8:35 PM 59.0 °F - 46.4 °F 63% 29.66 in 10.0 mi South 13.8 mph 23.0 mph N/A   Mostly Cloudy
8:55 PM 57.2 °F - 46.4 °F 67% 29.67 in 7.0 mi South 11.5 mph 17.3 mph N/A   Overcast
9:15 PM 55.4 °F - 48.2 °F 77% 29.66 in 5.0 mi South 13.8 mph 19.6 mph N/A   Overcast
9:35 PM 53.6 °F - 50.0 °F 88% 29.66 in 10.0 mi South 10.4 mph - N/A   Overcast
9:55 PM 55.4 °F - 50.0 °F 82% 29.66 in 10.0 mi SSW 8.1 mph 19.6 mph N/A   Overcast
10:15 PM 53.6 °F - 50.0 °F 88% 29.67 in 10.0 mi West 6.9 mph - N/A   Overcast
10:35 PM 53.6 °F - 50.0 °F 88% 29.65 in 7.0 mi SW 5.8 mph - N/A   Mostly Cloudy
10:55 PM 53.6 °F - 51.8 °F 94% 29.65 in 10.0 mi SW 6.9 mph - N/A   Scattered Clouds
11:15 PM 53.6 °F - 51.8 °F 94% 29.64 in 10.0 mi SW 9.2 mph 16.1 mph N/A   Scattered Clouds
11:35 PM 53.6 °F - 51.8 °F 94% 29.64 in 7.0 mi WSW 16.1 mph 23.0 mph N/A   Scattered Clouds
11:55 PM 53.6 °F - 51.8 °F 94% 29.64 in 10.0 mi SW 11.5 mph 18.4 mph N/A   Clear